Tracking 34305 objects as of 6-Jun-2026
HD Live streaming from Space Station
objects crossing your sky now

COSMOS 2287 (GLONASS)

Track COSMOS 2287 (GLONASS) now!
COSMOS 2287 (GLONASS) is classified as:


NORAD ID: 23203
Int'l Code: 1994-050A
Perigee: 19,106.3 km
Apogee: 19,167.8 km
Inclination: 65.4 °
Period: 675.7 minutes
Semi major axis: 25508 km
RCS: 3.2588 m2 (large)
Launch date: August 11, 1994
Source: Commonwealth of Independent States (former USSR) (CIS)
Launch site: TYURATAM MISSILE AND SPACE COMPLEX (TTMTR)
Your satellite tracking list
Your tracking list is empty




NASA's NSSDC Master Catalog

Two Line Element Set (TLE):
1 23203U 94050A   26155.91842573  .00000059  00000-0  00000-0 0  9990
2 23203  65.4162 202.6168 0012051  16.7016 342.7810  2.13101423247589
Source of the keplerian elements: AFSPC